W0WC Weather Reports


time (UTC)temp
C
wind
direction
speed
KPH
gust
KPH
rain 1hr
cm
rain 24hr
cm
rain mn
cm
humidity
%
barometer
mb
20260510130932 16 356 4.8 6.4 0.00 0.00 0.00 73 1018.4
20260510130429 16 78 6.4 6.4 0.00 0.00 0.00 73 1018.3
20260510125926 16 19 4.8 4.8 0.00 0.00 0.00 74 1017.9
20260510125422 16 77 6.4 12.9 0.00 0.00 0.00 73 1017.8
20260510124919 16 19 6.4 9.7 0.00 0.00 0.00 73 1018.0
20260510124416 16 330 6.4 9.7 0.00 0.00 0.00 73 1017.6
20260510123912 16 14 3.2 3.2 0.00 0.00 0.00 74 1017.5
20260510123407 16 11 4.8 12.9 0.00 0.00 0.00 75 1017.4
20260510122904 16 20 3.2 6.4 0.00 0.00 0.00 75 1017.3
20260510122359 16 21 3.2 6.4 0.00 0.00 0.00 76 1017.3
20260510121855 15 21 6.4 9.7 0.00 0.00 0.00 76 1017.2
20260510121353 15 25 1.6 3.2 0.00 0.00 0.00 76 1017.0
20260510120850 15 9 6.4 9.7 0.00 0.00 0.00 76 1017.0
20260510120348 15 20 4.8 6.4 0.00 0.00 0.00 76 1016.7
20260510115849 15 66 1.6 1.6 0.00 0.00 0.00 77 1016.5
20260510115346 15 18 1.6 1.6 0.00 0.00 0.00 77 1016.5
20260510114842 15 22 1.6 1.6 0.00 0.00 0.00 76 1016.3
20260510114339 15 22 4.8 9.7 0.00 0.00 0.00 76 1016.2
20260510113839 15 10 4.8 6.4 0.00 0.00 0.00 76 1016.0
20260510113336 15 25 3.2 6.4 0.00 0.00 0.00 76 1016.0
20260510112833 15 29 1.6 3.2 0.00 0.00 0.00 75 1015.9
20260510112330 16 12 1.6 1.6 0.00 0.00 0.00 75 1016.0
20260510111825 16 14 6.4 6.4 0.00 0.00 0.00 75 1015.9
20260510111323 16 14 6.4 6.4 0.00 0.00 0.00 75 1016.1
20260510110822 16 21 1.6 3.2 0.00 0.00 0.00 75 1015.9
20260510110321 16 27 3.2 4.8 0.00 0.00 0.00 75 1015.4
20260510105816 16 45 3.2 4.8 0.00 0.00 0.00 74 1015.7
20260510105316 16 11 8.0 11.3 0.00 0.00 0.00 75 1015.5
20260510104812 16 10 4.8 6.4 0.00 0.00 0.00 74 1015.4
20260510104310 16 346 3.2 3.2 0.00 0.00 0.00 74 1015.3
20260510103806 16 31 3.2 3.2 0.00 0.00 0.00 74 1015.3
20260510103303 16 8 3.2 3.2 0.00 0.00 0.00 74 1015.2
20260510102804 16 17 1.6 3.2 0.00 0.00 0.00 75 1015.2
20260510102259 16 9 1.6 1.6 0.00 0.00 0.00 75 1015.3
20260510101757 16 12 3.2 3.2 0.00 0.00 0.00 76 1015.4
20260510101255 16 18 0.0 0.0 0.00 0.00 0.00 74 1015.3
20260510100751 16 14 0.0 0.0 0.00 0.00 0.00 75 1015.1
20260510100249 16 15 0.0 0.0 0.00 0.00 0.00 74 1015.3
20260510095744 16 23 0.0 0.0 0.00 0.00 0.00 73 1015.0
20260510095239 16 30 0.0 1.6 0.00 0.00 0.00 73 1015.1
20260510094738 16 12 0.0 0.0 0.00 0.00 0.00 72 1015.2
20260510094234 16 25 0.0 0.0 0.00 0.00 0.00 72 1015.1
20260510093730 16 10 3.2 3.2 0.00 0.00 0.00 72 1015.1
20260510093228 17 13 0.0 0.0 0.00 0.00 0.00 71 1014.9
20260510092724 17 17 0.0 0.0 0.00 0.00 0.00 71 1014.7
20260510092219 17 17 0.0 0.0 0.00 0.00 0.00 68 1014.6
20260510091715 17 19 1.6 1.6 0.00 0.00 0.00 68 1014.1
20260510091212 17 49 1.6 1.6 0.00 0.00 0.00 68 1014.2
20260510090708 17 21 0.0 0.0 0.00 0.00 0.00 68 1013.9
20260510090205 17 19 0.0 0.0 0.00 0.00 0.00 68 1014.2
20260510085700 17 19 0.0 0.0 0.00 0.00 0.00 69 1014.0
20260510085156 17 22 0.0 0.0 0.00 0.00 0.00 69 1013.9
20260510084652 17 19 0.0 0.0 0.00 0.00 0.00 68 1013.9
20260510084149 17 23 0.0 0.0 0.00 0.00 0.00 68 1013.7
20260510083646 17 26 0.0 0.0 0.00 0.00 0.00 68 1013.8
20260510083143 17 37 0.0 0.0 0.00 0.00 0.00 68 1013.9
20260510082639 17 23 0.0 0.0 0.00 0.00 0.00 68 1013.6
20260510082134 17 10 0.0 0.0 0.00 0.00 0.00 68 1013.8
20260510081629 17 15 0.0 0.0 0.00 0.00 0.00 67 1013.8
20260510081126 18 19 0.0 0.0 0.00 0.00 0.00 66 1013.9
20260510080625 18 12 0.0 0.0 0.00 0.00 0.00 65 1013.8
20260510080121 18 14 0.0 0.0 0.00 0.00 0.00 64 1013.7
20260510075619 18 36 1.6 1.6 0.00 0.00 0.00 63 1013.8
20260510075116 18 24 0.0 0.0 0.00 0.00 0.00 62 1013.8
20260510074613 18 13 1.6 1.6 0.00 0.00 0.00 61 1014.0
20260510074109 19 7 1.6 1.6 0.00 0.00 0.00 60 1013.8
20260510073605 19 10 1.6 1.6 0.00 0.00 0.00 60 1013.7
20260510073102 19 15 0.0 0.0 0.00 0.00 0.00 60 1013.9
20260510072559 20 7 0.0 1.6 0.00 0.00 0.00 58 1013.9
20260510072054 20 323 3.2 3.2 0.00 0.00 0.00 58 1013.8
20260510071551 20 18 0.0 0.0 0.00 0.00 0.00 57 1013.9
20260510071049 20 14 1.6 1.6 0.00 0.00 0.00 57 1014.1
20260510070545 20 322 3.2 3.2 0.00 0.00 0.00 59 1014.1
20260510070043 20 1 3.2 4.8 0.00 0.00 0.00 60 1013.7
20260510065539 20 1 4.8 4.8 0.00 0.00 0.00 60 1013.5
20260510065035 20 9 3.2 3.2 0.00 0.00 0.00 58 1013.5
20260510064531 20 17 3.2 3.2 0.00 0.00 0.00 55 1013.5
20260510064028 20 314 6.4 9.7 0.00 0.00 0.00 55 1013.1
20260510063525 20 329 3.2 3.2 0.00 0.00 0.00 54 1012.7
20260510063022 20 352 3.2 3.2 0.00 0.00 0.00 54 1012.2
20260510062518 20 103 4.8 9.7 0.00 0.00 0.00 55 1012.6
20260510062013 20 115 3.2 4.8 0.00 0.00 0.00 54 1012.9
20260510061510 20 66 3.2 3.2 0.00 0.00 0.00 54 1012.9
20260510061007 20 66 1.6 3.2 0.00 0.00 0.00 56 1013.1
20260510060504 20 52 1.6 3.2 0.00 0.00 0.00 55 1013.3
20260510055959 20 42 1.6 1.6 0.00 0.00 0.00 54 1013.2
20260510055455 20 45 1.6 1.6 0.00 0.00 0.00 54 1013.1
20260510054954 20 37 0.0 0.0 0.00 0.00 0.00 54 1013.2
20260510054449 20 33 1.6 1.6 0.00 0.00 0.00 55 1013.5
20260510053944 20 17 0.0 0.0 0.00 0.00 0.00 56 1013.4
20260510053440 20 108 1.6 3.2 0.00 0.00 0.00 58 1013.4
20260510052936 20 341 1.6 1.6 0.00 0.00 0.00 58 1013.5
20260510052432 20 336 0.0 1.6 0.00 0.00 0.00 60 1013.5
20260510051928 19 319 1.6 1.6 0.00 0.00 0.00 60 1013.6
20260510051425 18 72 1.6 3.2 0.00 0.00 0.00 62 1013.9
20260510050921 18 12 0.0 0.0 0.00 0.00 0.00 65 1013.6
20260510050418 18 11 0.0 0.0 0.00 0.00 0.00 67 1013.6
20260510045915 18 3 0.0 0.0 0.00 0.00 0.00 66 1013.5
20260510045413 18 9 0.0 0.0 0.00 0.00 0.00 67 1013.7
20260510044909 18 10 0.0 0.0 0.00 0.00 0.00 66 1013.7
20260510044406 18 10 0.0 0.0 0.00 0.00 0.00 64 1013.4
20260510043903 19 10 0.0 0.0 0.00 0.00 0.00 63 1013.5
20260510043358 19 10 0.0 0.0 0.00 0.00 0.00 60 1013.4
20260510042857 19 7 0.0 0.0 0.00 0.00 0.00 61 1013.3
20260510042352 19 4 0.0 0.0 0.00 0.00 0.00 62 1013.4
20260510041848 19 27 0.0 1.6 0.00 0.00 0.00 63 1013.4
20260510041346 18 24 0.0 0.0 0.00 0.00 0.00 63 1013.3
20260510040843 18 24 0.0 0.0 0.00 0.00 0.00 64 1013.4
20260510040340 18 26 0.0 0.0 0.00 0.00 0.00 64 1013.4
20260510035835 18 14 0.0 0.0 0.00 0.03 0.03 65 1013.5
20260510035331 18 20 0.0 0.0 0.00 0.03 0.03 66 1013.4
20260510034827 18 22 0.0 0.0 0.00 0.03 0.03 66 1013.3
20260510034325 18 17 0.0 0.0 0.00 0.03 0.03 66 1013.2
20260510033821 18 0 0.0 0.0 0.00 0.03 0.03 67 1013.1
20260510033319 18 26 0.0 0.0 0.00 0.03 0.03 67 1012.9
20260510032815 18 14 0.0 0.0 0.00 0.03 0.03 66 1012.9
20260510032312 18 2 0.0 0.0 0.00 0.03 0.03 66 1012.7
20260510031807 18 19 0.0 0.0 0.00 0.03 0.03 65 1012.8
20260510031304 18 19 0.0 0.0 0.00 0.03 0.03 66 1012.7
20260510030803 18 17 0.0 0.0 0.00 0.03 0.03 65 1012.5
20260510030300 18 16 0.0 0.0 0.00 0.03 0.03 63 1012.7
20260510025757 19 13 0.0 0.0 0.00 0.03 0.03 62 1012.6
20260510025255 19 17 0.0 0.0 0.00 0.03 0.03 61 1012.5
20260510024751 19 19 0.0 0.0 0.00 0.03 0.03 61 1012.3
20260510024248 19 17 0.0 0.0 0.00 0.03 0.03 62 1012.4
20260510023744 19 10 0.0 0.0 0.00 0.03 0.03 61 1012.3
20260510023241 20 9 0.0 0.0 0.00 0.03 0.03 60 1012.2
20260510022737 20 354 0.0 0.0 0.00 0.03 0.03 59 1012.1
20260510022237 20 352 0.0 0.0 0.00 0.03 0.03 59 1012.1
20260510021732 19 7 0.0 0.0 0.00 0.03 0.03 60 1011.6
20260510021230 20 14 0.0 0.0 0.00 0.03 0.03 61 1011.7
20260510020730 20 10 0.0 0.0 0.00 0.03 0.03 60 1011.6
20260510020225 20 9 0.0 0.0 0.00 0.03 0.03 58 1011.4
20260510015721 21 9 0.0 0.0 0.00 0.03 0.03 55 1011.3
20260510015218 21 358 0.0 0.0 0.00 0.03 0.03 55 1011.3
20260510014713 21 352 0.0 0.0 0.00 0.03 0.03 55 1011.1
20260510014211 21 359 0.0 0.0 0.00 0.03 0.03 54 1011.0
20260510013706 21 5 0.0 0.0 0.00 0.03 0.03 54 1010.7
20260510013202 21 0 0.0 0.0 0.00 0.03 0.03 54 1010.9
20260510012701 22 9 0.0 0.0 0.00 0.03 0.03 51 1010.7
20260510012157 22 14 0.0 0.0 0.00 0.03 0.03 49 1010.7
20260510011652 22 14 0.0 0.0 0.00 0.03 0.03 49 1010.3
20260510011148 23 14 0.0 0.0 0.00 0.03 0.03 48 1010.3
20260510010644 23 14 0.0 0.0 0.00 0.03 0.03 46 1010.3
20260510010142 23 11 0.0 0.0 0.00 0.03 0.03 44 1010.2
20260510005637 24 19 0.0 0.0 0.00 0.03 0.03 44 1010.3
20260510005135 24 30 0.0 1.6 0.00 0.03 0.03 43 1010.3
20260510004633 25 359 0.0 0.0 0.00 0.03 0.03 43 1010.1
20260510004131 25 23 0.0 1.6 0.00 0.03 0.03 41 1010.3
20260510003627 25 332 3.2 3.2 0.00 0.03 0.03 40 1010.1
20260510003123 25 257 3.2 3.2 0.00 0.03 0.03 39 1010.1
20260510002617 26 123 4.8 6.4 0.00 0.03 0.03 38 1010.2
20260510002115 26 200 6.4 9.7 0.00 0.03 0.03 38 1010.2
20260510001612 26 214 4.8 6.4 0.00 0.03 0.03 37 1010.0
20260510001111 26 179 3.2 4.8 0.00 0.03 0.03 36 1010.1
20260510000610 26 103 1.6 3.2 0.00 0.03 0.03 34 1010.1
20260510000108 27 220 1.6 3.2 0.00 0.03 0.03 35 1010.3
20260509235604 27 180 4.8 4.8 0.00 0.03 0.03 34 1010.2
20260509235101 27 188 4.8 4.8 0.00 0.03 0.03 34 1010.1
20260509234557 27 6 0.0 0.0 0.00 0.03 0.03 35 1010.3
20260509234055 27 311 1.6 1.6 0.00 0.03 0.03 34 1010.1
20260509233552 28 221 4.8 6.4 0.00 0.03 0.03 31 1010.1
20260509233050 28 6 1.6 3.2 0.00 0.03 0.03 33 1010.2
20260509232546 28 359 0.0 0.0 0.00 0.03 0.03 32 1010.2
20260509232043 28 345 1.6 1.6 0.00 0.03 0.03 32 1010.3
20260509231539 28 18 0.0 0.0 0.00 0.03 0.03 30 1010.3
20260509231037 28 318 1.6 1.6 0.00 0.03 0.03 30 1010.4
20260509230533 28 13 1.6 3.2 0.00 0.03 0.03 31 1010.3
20260509230031 28 338 1.6 1.6 0.00 0.03 0.03 28 1010.2
20260509225526 28 38 0.0 0.0 0.00 0.03 0.03 30 1010.4
20260509225022 28 27 1.6 3.2 0.00 0.03 0.03 29 1010.4
20260509224518 28 26 0.0 1.6 0.00 0.03 0.03 29 1010.3
20260509224014 28 260 3.2 3.2 0.00 0.03 0.03 30 1010.3
20260509223511 29 323 4.8 6.4 0.00 0.03 0.03 30 1010.2
20260509223010 28 34 1.6 3.2 0.00 0.03 0.03 32 1010.2
20260509222505 28 166 9.7 11.3 0.00 0.03 0.03 30 1010.5
20260509222001 28 181 8.0 11.3 0.00 0.03 0.03 30 1010.3
20260509221457 29 220 6.4 6.4 0.00 0.03 0.03 31 1010.4
20260509220953 29 294 3.2 3.2 0.00 0.03 0.03 30 1010.3
20260509220449 28 200 3.2 4.8 0.00 0.03 0.03 30 1010.5
20260509215945 28 356 3.2 3.2 0.00 0.03 0.03 33 1010.5
20260509215440 28 288 1.6 1.6 0.00 0.03 0.03 30 1010.3
20260509214938 29 294 3.2 4.8 0.00 0.03 0.03 30 1010.4
20260509214435 29 193 4.8 4.8 0.00 0.03 0.03 30 1010.3
20260509213932 29 359 1.6 3.2 0.00 0.03 0.03 30 1010.4
20260509213428 30 266 6.4 9.7 0.00 0.03 0.03 30 1010.5
20260509212926 28 328 1.6 1.6 0.00 0.03 0.03 31 1010.2
20260509212423 28 316 3.2 3.2 0.00 0.03 0.03 31 1010.5
20260509211919 28 352 4.8 6.4 0.00 0.03 0.03 29 1010.5
20260509211415 28 69 1.6 1.6 0.00 0.03 0.03 32 1010.4
20260509210911 28 161 3.2 3.2 0.00 0.03 0.03 32 1010.7
20260509210409 28 200 11.3 14.5 0.00 0.03 0.03 33 1010.9
20260509205904 28 271 6.4 9.7 0.00 0.03 0.03 34 1010.9
20260509205403 28 239 4.8 4.8 0.00 0.03 0.03 32 1010.9
20260509204900 28 354 4.8 6.4 0.00 0.03 0.03 30 1011.0
20260509204356 28 211 6.4 9.7 0.00 0.03 0.03 33 1011.0
20260509203853 30 188 3.2 4.8 0.00 0.03 0.03 32 1011.0
20260509203349 28 315 1.6 1.6 0.00 0.03 0.03 33 1011.0
20260509202847 28 238 3.2 4.8 0.00 0.03 0.03 34 1011.1
20260509202342 28 319 6.4 6.4 0.00 0.03 0.03 32 1011.2
20260509201837 28 265 4.8 6.4 0.00 0.03 0.03 34 1011.3
20260509201328 28 32 3.2 6.4 0.00 0.03 0.03 37 1011.4
20260509200825 28 331 9.7 11.3 0.00 0.03 0.03 33 1011.3
20260509200320 28 137 3.2 4.8 0.00 0.03 0.03 34 1011.4
20260509195816 28 215 6.4 9.7 0.00 0.03 0.03 34 1011.4
20260509195311 28 163 9.7 12.9 0.00 0.03 0.03 33 1011.5
20260509194811 28 11 3.2 4.8 0.00 0.03 0.03 35 1011.2
20260509194307 28 263 3.2 3.2 0.00 0.03 0.03 35 1011.6
20260509193804 28 274 3.2 3.2 0.00 0.03 0.03 32 1011.5
20260509193304 28 4 6.4 9.7 0.00 0.03 0.03 35 1011.4
20260509192800 28 347 3.2 3.2 0.00 0.03 0.03 37 1011.5
20260509192256 28 187 6.4 11.3 0.00 0.03 0.03 36 1011.5
20260509191751 27 23 3.2 4.8 0.00 0.03 0.03 38 1011.4
20260509191248 27 358 1.6 3.2 0.00 0.03 0.03 36 1011.6
20260509190743 27 2 1.6 1.6 0.00 0.03 0.03 40 1011.6
20260509190241 28 211 3.2 4.8 0.00 0.03 0.03 38 1011.6
20260509185738 27 97 0.0 1.6 0.00 0.03 0.03 39 1011.7
20260509185234 27 111 1.6 3.2 0.00 0.03 0.03 40 1011.8
20260509184732 27 312 3.2 3.2 0.00 0.03 0.03 45 1011.6
20260509184229 27 265 4.8 6.4 0.00 0.03 0.03 40 1011.9
20260509183725 27 282 6.4 6.4 0.00 0.03 0.03 41 1011.8
20260509183221 26 202 6.4 11.3 0.00 0.03 0.03 41 1011.9
20260509182716 27 225 6.4 9.7 0.00 0.03 0.03 45 1011.9
20260509182214 27 200 4.8 4.8 0.00 0.03 0.03 45 1011.8
20260509181712 27 164 0.0 1.6 0.00 0.03 0.03 47 1011.9
20260509181209 27 226 4.8 6.4 0.00 0.03 0.03 43 1012.1
20260509180706 26 169 1.6 3.2 0.00 0.03 0.03 45 1012.0
20260509180202 26 236 3.2 3.2 0.00 0.03 0.03 46 1011.8
20260509175658 27 345 0.0 0.0 0.00 0.03 0.03 44 1012.1
20260509175155 27 219 6.4 9.7 0.00 0.03 0.03 43 1012.0
20260509174651 26 87 3.2 3.2 0.00 0.03 0.03 40 1012.0
20260509174150 26 260 4.8 4.8 0.00 0.03 0.03 43 1012.1
20260509173647 26 252 4.8 6.4 0.00 0.03 0.03 41 1012.0
20260509173143 27 356 3.2 6.4 0.00 0.03 0.03 38 1012.1
20260509172639 26 133 0.0 1.6 0.00 0.03 0.03 38 1012.0
20260509172136 26 14 0.0 1.6 0.00 0.03 0.03 40 1012.2
20260509171631 26 327 0.0 0.0 0.00 0.03 0.03 39 1012.1
20260509171128 26 0 0.0 0.0 0.00 0.03 0.03 46 1012.1
20260509170625 26 9 0.0 0.0 0.00 0.03 0.03 46 1012.1
20260509170121 26 236 3.2 3.2 0.00 0.03 0.03 46 1012.0
20260509165619 26 207 3.2 4.8 0.00 0.03 0.03 43 1011.9
20260509165115 26 345 0.0 1.6 0.00 0.03 0.03 48 1012.1
20260509164611 26 293 3.2 3.2 0.00 0.03 0.03 45 1012.0
20260509164107 26 321 1.6 1.6 0.00 0.03 0.03 46 1012.2
20260509163605 25 334 0.0 1.6 0.00 0.03 0.03 47 1012.1
20260509163100 25 358 3.2 3.2 0.00 0.03 0.03 51 1012.2
20260509162557 25 14 1.6 1.6 0.00 0.03 0.03 53 1012.0
20260509162053 25 348 0.0 0.0 0.00 0.03 0.03 54 1012.1
20260509161545 25 343 1.6 3.2 0.00 0.03 0.03 53 1012.1
20260509161045 24 226 1.6 4.8 0.00 0.03 0.03 53 1012.1
20260509160541 24 185 6.4 6.4 0.00 0.03 0.03 52 1012.0
20260509160037 24 233 4.8 4.8 0.00 0.03 0.03 52 1012.1
20260509155533 23 216 1.6 3.2 0.00 0.03 0.03 56 1012.1
20260509155029 23 1 3.2 4.8 0.00 0.03 0.03 58 1012.1
20260509154525 23 358 0.0 0.0 0.00 0.03 0.03 58 1012.0
20260509154023 23 172 3.2 3.2 0.00 0.03 0.03 57 1012.0
20260509153520 23 174 3.2 3.2 0.00 0.03 0.03 59 1012.0
20260509153017 23 246 4.8 4.8 0.00 0.03 0.03 59 1012.1
20260509152512 22 85 1.6 3.2 0.00 0.03 0.03 60 1011.9
20260509152009 22 202 3.2 3.2 0.00 0.03 0.03 62 1012.1
20260509151506 22 137 4.8 6.4 0.00 0.03 0.03 63 1011.9
20260509151004 22 320 3.2 3.2 0.00 0.03 0.03 64 1012.2
20260509150501 22 15 1.6 3.2 0.00 0.03 0.03 68 1012.2
20260509145959 21 45 0.0 1.6 0.00 0.03 0.03 72 1012.0
20260509145455 21 52 3.2 3.2 0.00 0.03 0.03 68 1012.0
20260509144950 20 320 3.2 3.2 0.00 0.03 0.03 73 1012.0
20260509144447 20 343 1.6 1.6 0.00 0.03 0.03 75 1011.9
20260509143944 20 295 3.2 3.2 0.00 0.03 0.03 77 1012.0
20260509143441 19 350 1.6 1.6 0.00 0.03 0.03 78 1012.2
20260509142938 18 345 4.8 4.8 0.00 0.03 0.03 80 1012.1
20260509142434 18 346 3.2 3.2 0.00 0.03 0.03 82 1012.1
20260509141930 18 298 4.8 4.8 0.00 0.03 0.03 81 1011.9
20260509141427 18 354 4.8 6.4 0.00 0.03 0.03 84 1011.9
20260509140924 18 10 1.6 3.2 0.00 0.03 0.03 84 1011.7
20260509140420 18 350 4.8 4.8 0.00 0.03 0.03 84 1011.9
20260509135918 18 9 4.8 4.8 0.00 0.03 0.03 84 1011.8
20260509135415 18 6 1.6 1.6 0.00 0.03 0.03 86 1011.6
20260509134913 17 248 1.6 3.2 0.00 0.03 0.03 86 1011.6
20260509134410 17 336 0.0 1.6 0.00 0.03 0.03 89 1011.5
20260509133907 17 0 1.6 1.6 0.00 0.03 0.03 90 1011.6
20260509133403 17 21 0.0 0.0 0.00 0.03 0.03 92 1011.7
20260509132902 16 356 0.0 1.6 0.00 0.03 0.03 94 1011.8
20260509132400 16 230 1.6 1.6 0.00 0.03 0.03 95 1011.7
20260509131857 16 352 1.6 3.2 0.00 0.03 0.03 96 1011.7
20260509131354 15 14 0.0 1.6 0.00 0.03 0.03 97 1011.7